Tracking 25703 objects as of 2-Jul-2022
HD Live streaming from Space Station
objects crossing your sky now

STARLINK-1602

Track STARLINK-1602 now!
10-day predictions
STARLINK-1602 is classified as:


NORAD ID: 46121
Int'l Code: 2020-057E
Perigee: 553.3 km
Apogee: 555.4 km
Inclination: 53.1 °
Period: 95.6 minutes
Semi major axis: 6925 km
RCS: Unknown
Launch date: August 18, 2020
Source: United States (US)
Launch site: AIR FORCE EASTERN TEST RANGE (AFETR)
aabbcc
Your satellite tracking list
Your tracking list is empty




NASA's NSSDC Master Catalog

Two Line Element Set (TLE):
1 46121U 20057E   22183.52345090  .00000763  00000-0  70086-4 0  9993
2 46121  53.0544 219.8069 0001477  62.6674 297.4466 15.06398849103445
Source of the keplerian elements: AFSPC